DECAYED

CZ-7A R/B, 60607 (Decayed)

Orbit data source: Space-Track

CZ-7A R/B, 60607 was space debris in HEO originally from a launch on Thu, 22 Aug 2024 UTC launched from the Wenchang Satellite Launch Center (WSC). Debris objects in space refer to the collection of defunct objects orbiting the Earth. Examples of debris include non-operational satellites, rocket bodies, and fragments generated from explosions, collisions, or faulty payload assembly.

Not visible in the next 10 days
Identifier
60607, 2024-151B
Orbit
Decayed
Last TLE update
8 months ago
Origin
Manufacturer
CALT
Mission
Decayed spacecraft
Bus & Motor
CZ-3A STAGE 3, Unknown motor
Mass
~2,800 kg wet, ~2,800 kg dry
Launch date (UTC)
2024-08-22 (9 months ago)
Launch vehicle
Unknown
Launch site
Wenchang Satellite Launch Center (WSC)
Object type
Payload
Rocket body
Debris
Shape & HBR
Cyl + 1 Nozzle, 12.38 m
Radar Cross Section
32.704 m², Large (>1 m²)

Expand to show TLE details & history

TLE from 8 months ago
0 CZ-7A R/B
1 60607U 24151B   24261.03072416  .01161033  20484-5  27794-2 0  9999
2 60607  14.6562 169.5289 6954656 190.0106 140.9887  2.77671165   530
Epoch: 2024-09-17T00:44Z
Definitive object data (Epoch: 2024-09-17T00:44:14.567Z)
Latitude
0.00022°
Longitude
162.05089°
Altitude
28,678.843 km
Speed
2.025 km/s
True Right ascension
11h 18m 15s
True Declination
0° 00' 01"
Sunlit
Object was in daylight at TLE epoch
Visualization observer readout
Visualization observer readout
Orbital elements
Apogee altitude
29,882.813 km
Perigee altitude
134.945 km
Semi-major axis
21,387.016 km
Eccentricity
0.6954656
Inclination
14.6562°
RAAN
169.5289°
Arg. of periapsis
190.0106°
True anomaly
170.02557°
Mean anomaly
140.9887°
Eccentric anomaly
156.73057°
Mean motion
0.69393 °/min
BSTAR
0.0027794
Orbital period
518.78 mins
Loading maneuver chart data...
Loading SW <> Apogee altitude chart data...
Loading historical data...
Loading historical data...
Loading historical data...
Loading historical data...
Loading historical data...
Loading historical data...
Loading historical data...
Other satellites on launch #151 in the year 2024 (2024-08-22 UTC)

CZ-7A R/B Visibility forecast

Observer location: undefined°, undefined°

This satellite is decayed
Span
Click to sort rows by Start time (UTC) header in descending order
Start Az.
Max El. time (UTC)
Max El. Az.
Max El.
End time (UTC)
End Az.
|